星链-30335 (STARLINK-30335 )

导读

STARLINK-30335是美国SpaceX公司星链(Starlink)项目的一颗低轨互联网卫星,于2023年8月27日发射升空。作为星链星座的组成部分,它运行在近地轨道,旨在为全球偏远地区提供低延迟高速宽带互联网服务,单颗星链卫星设计寿命超5年,该卫星目前处于在轨服役状态,助力星链完成全球覆盖的组网目标。

基本信息
目录编号:
57710
目录名称:
STARLINK-30335
国际标识:
2023-129N
轨道中心:
EARTH
卫星名称:
星链-30335
卫星全名:
星链-30335 (STARLINK-30335 )
卫星状态:
在轨 (已飞行1026 天)
发射日期:
2023-08-27 UTC
国别 :
美国 (US)
星等 :
--
轨道信息
数据来源 国际轨道数据 AOE轨道数据
星历时间 2026-06-18T15:34:30+0800
5小时前
查看轨道信息
2026-06-13T02:00:00+0800
5天前
查看轨道信息
半长轴 6861.225km 6861.13km
偏心率 0.0001191 0.0001147
轨道倾角 43.001° 43.004°
近地点辐角 275.743° 276.343°
升交点赤经 269.484° 300.917°
平近点角 84.329° 41.048°
近地点 482.27km 482.206km
远地点 483.906km 483.78km
周期 94.268分钟 94.266分钟
每日圈数 15.275671 15.275989
详细信息
固有亮度:
5
最大亮度:
0.3
卫星平台:
Starlink v2.0 mini
覆盖范围:
全球
运营商:
太空探索技术公司
运营商所在国:
美国
制造商(研发单位):
太空探索技术公司
制造商所在国:
美国
使用方式:
暂无
卫星简介
星链(Starlink)计划是由太空探索技术公司(SpaceX)提出的一个巨型低轨卫星互联网星座项目,计划在2019年至2024年间在太空搭建由约1.2万颗卫星组成的“星链”网络,其中1584颗将部署在地球上空550千米处的近地轨道,并从2020年开始工作。该卫星仍在工作。
2D轨道图
3D轨道图
轨道高度分析图
轨道倾角分析图
轨道综合分析图
查看轨道综合分析图